SWR64E LSZH-KMIA

Flight info

Callsign SWR64E
Flight time N/A
Altitude 34000
Route VEBIT T10 TORPA DCT REKLA DCT RLP DCT ROTSI DCT AMODO DCT COHPA UM729 RESMI UN491 LGL UN502 JSY DCT LIZAD DCT ARKIL/M082F340 DCT DINIM/M082F350 NATG NICSO/M082F360 DCT LOMPI M202 MUNEY/M082F380 M202 ONGOT DCT PADRK M203 SNAGY/N0471F380 BNFSH3
Aircraft B77W/H-SDE1E2E3FGHIJ2J3J4J5M1RWXY/LB1D1

Departure

Time 2026-04-30 09:14
Airport Zürich Airport (LSZH)

Arrival

Time N/A
Airport Miami International Airport (KMIA)
Time Latitude Longitude Altitude Speed Heading
2026-04-30 08:15 47.46141 8.55871 1414 ft 0 kts 276°
2026-04-30 09:01 47.46140 8.55878 1409 ft 3 kts 276°
2026-04-30 09:01 47.46137 8.55917 1410 ft 3 kts 276°
2026-04-30 09:01 47.46136 8.55949 1415 ft 4 kts 265°
2026-04-30 09:02 47.46162 8.56000 1411 ft 4 kts 186°
2026-04-30 09:02 47.46189 8.56004 1410 ft 4 kts 186°
2026-04-30 09:02 47.46196 8.56005 1410 ft 0 kts 186°
2026-04-30 09:05 47.46178 8.56003 1412 ft 4 kts 186°
2026-04-30 09:05 47.46131 8.55995 1411 ft 11 kts 186°
2026-04-30 09:05 47.46048 8.55982 1415 ft 12 kts 186°
2026-04-30 09:05 47.45965 8.55966 1415 ft 12 kts 192°
2026-04-30 09:06 47.45887 8.55924 1418 ft 12 kts 208°
2026-04-30 09:06 47.45855 8.55818 1413 ft 12 kts 271°
2026-04-30 09:06 47.45862 8.55695 1415 ft 12 kts 275°
2026-04-30 09:06 47.45870 8.55574 1413 ft 12 kts 276°
2026-04-30 09:07 47.45878 8.55451 1414 ft 12 kts 276°
2026-04-30 09:07 47.45887 8.55328 1410 ft 12 kts 277°
2026-04-30 09:07 47.45897 8.55206 1406 ft 12 kts 277°
2026-04-30 09:07 47.45912 8.55085 1403 ft 12 kts 289°
2026-04-30 09:08 47.45952 8.54997 1406 ft 8 kts 319°
2026-04-30 09:08 47.45975 8.54980 1402 ft 2 kts 356°
2026-04-30 09:08 47.46010 8.55027 1406 ft 14 kts 40°
2026-04-30 09:08 47.46106 8.55024 1404 ft 15 kts 338°
2026-04-30 09:09 47.46199 8.54963 1404 ft 15 kts 335°
2026-04-30 09:09 47.46306 8.54890 1402 ft 23 kts 335°
2026-04-30 09:09 47.46444 8.54795 1402 ft 22 kts 334°
2026-04-30 09:09 47.46580 8.54700 1405 ft 22 kts 335°
2026-04-30 09:10 47.46700 8.54618 1399 ft 16 kts 335°
2026-04-30 09:10 47.46787 8.54511 1386 ft 17 kts 306°
2026-04-30 09:10 47.46858 8.54385 1383 ft 16 kts 323°
2026-04-30 09:10 47.46956 8.54311 1385 ft 16 kts 334°
2026-04-30 09:11 47.47056 8.54241 1389 ft 16 kts 335°
2026-04-30 09:11 47.47155 8.54174 1400 ft 16 kts 335°
2026-04-30 09:11 47.47256 8.54106 1404 ft 16 kts 336°
2026-04-30 09:11 47.47356 8.54038 1403 ft 16 kts 334°
2026-04-30 09:12 47.47456 8.53968 1404 ft 16 kts 334°
2026-04-30 09:12 47.47556 8.53898 1403 ft 16 kts 332°
2026-04-30 09:12 47.47606 8.53783 1411 ft 14 kts 274°
2026-04-30 09:12 47.47581 8.53665 1408 ft 8 kts 245°
2026-04-30 09:13 47.47560 8.53619 1411 ft 5 kts 211°
2026-04-30 09:13 47.47518 8.53631 1411 ft 9 kts 155°
2026-04-30 09:13 47.47332 8.53758 1403 ft 62 kts 155°
2026-04-30 09:13 47.46708 8.54190 1384 ft 134 kts 155°
2026-04-30 09:14 47.45685 8.54895 1419 ft 186 kts 152°
2026-04-30 09:14 47.44496 8.55704 1947 ft 191 kts 152°
2026-04-30 09:14 47.43366 8.56660 2716 ft 183 kts 131°
2026-04-30 09:14 47.42853 8.58275 3268 ft 171 kts 85°
2026-04-30 09:15 47.43341 8.59827 3734 ft 176 kts 44°
2026-04-30 09:15 47.44348 8.60831 4180 ft 179 kts 31°
2026-04-30 09:15 47.45588 8.61290 4575 ft 191 kts 357°
2026-04-30 09:15 47.46757 8.60380 4800 ft 204 kts 309°
2026-04-30 09:16 47.47162 8.58399 5049 ft 207 kts 263°
2026-04-30 09:16 47.46912 8.56302 5350 ft 208 kts 259°
2026-04-30 09:16 47.46566 8.54233 5690 ft 208 kts 244°
2026-04-30 09:16 47.45882 8.52313 5919 ft 219 kts 238°
2026-04-30 09:17 47.45073 8.50280 6100 ft 239 kts 238°
2026-04-30 09:17 47.44190 8.48061 6257 ft 262 kts 238°
2026-04-30 09:17 47.43247 8.45674 6555 ft 281 kts 238°
2026-04-30 09:17 47.42269 8.43158 7207 ft 286 kts 238°
2026-04-30 09:18 47.41276 8.40589 7878 ft 289 kts 239°
2026-04-30 09:18 47.40278 8.38003 8635 ft 292 kts 239°
2026-04-30 09:18 47.39261 8.35366 9269 ft 297 kts 239°
2026-04-30 09:18 47.38250 8.32664 9914 ft 304 kts 241°
2026-04-30 09:19 47.37277 8.29908 10601 ft 305 kts 242°
2026-04-30 09:19 47.36273 8.27056 10932 ft 324 kts 242°
2026-04-30 09:19 47.35192 8.24006 11117 ft 347 kts 242°
2026-04-30 09:19 47.34036 8.20741 11276 ft 371 kts 242°
2026-04-30 09:20 47.32804 8.17276 11545 ft 389 kts 242°
2026-04-30 09:20 47.31553 8.13762 12273 ft 395 kts 242°
2026-04-30 09:20 47.30259 8.10106 13082 ft 401 kts 243°
2026-04-30 09:20 47.29568 8.08149 13545 ft 402 kts 243°
2026-04-30 09:21 47.28957 8.06421 13912 ft 407 kts 243°
2026-04-30 09:21 47.27687 8.02674 14528 ft 408 kts 249°
2026-04-30 09:21 47.27093 7.98592 15201 ft 409 kts 271°
2026-04-30 09:21 47.27369 7.94463 15901 ft 407 kts 281°
2026-04-30 09:22 47.27817 7.90303 16523 ft 415 kts 281°
2026-04-30 09:22 47.28244 7.86072 17236 ft 420 kts 281°
2026-04-30 09:22 47.28657 7.81797 17996 ft 423 kts 280°
2026-04-30 09:22 47.29061 7.77481 18700 ft 428 kts 280°
2026-04-30 09:23 47.29466 7.73121 19304 ft 433 kts 280°
2026-04-30 09:23 47.29867 7.68763 19866 ft 438 kts 280°
2026-04-30 09:23 47.30298 7.64296 20459 ft 442 kts 283°
2026-04-30 09:23 47.30977 7.59879 21043 ft 444 kts 289°
2026-04-30 09:24 47.31932 7.55534 21615 ft 448 kts 291°
2026-04-30 09:24 47.32922 7.51155 22175 ft 453 kts 291°
2026-04-30 09:24 47.33915 7.46727 22720 ft 457 kts 291°
2026-04-30 09:24 47.34907 7.42241 23244 ft 463 kts 291°
2026-04-30 09:25 47.35900 7.37698 23776 ft 468 kts 290°
2026-04-30 09:25 47.36879 7.33173 24273 ft 471 kts 290°
2026-04-30 09:25 47.37872 7.28565 24768 ft 473 kts 290°
2026-04-30 09:25 47.38872 7.23921 25269 ft 476 kts 290°
2026-04-30 09:26 47.39876 7.19248 25732 ft 479 kts 290°
2026-04-30 09:26 47.40862 7.14533 26185 ft 483 kts 288°
2026-04-30 09:26 47.41668 7.09710 26634 ft 487 kts 284°
2026-04-30 09:26 47.42373 7.04800 27074 ft 490 kts 283°
2026-04-30 09:27 47.43048 6.99862 27538 ft 492 kts 283°
2026-04-30 09:27 47.43722 6.94976 27968 ft 494 kts 283°
2026-04-30 09:27 47.44426 6.89989 28370 ft 497 kts 284°
2026-04-30 09:27 47.45145 6.84991 28750 ft 500 kts 284°
2026-04-30 09:28 47.45875 6.79956 29120 ft 502 kts 284°
2026-04-30 09:28 47.46609 6.74899 29499 ft 504 kts 284°
2026-04-30 09:28 47.47339 6.69833 30003 ft 503 kts 283°
2026-04-30 09:28 47.48020 6.64766 30473 ft 503 kts 280°
2026-04-30 09:29 47.48449 6.59638 30805 ft 504 kts 277°
2026-04-30 09:29 47.48802 6.54548 31163 ft 504 kts 277°
2026-04-30 09:29 47.49147 6.49396 31566 ft 503 kts 277°
2026-04-30 09:29 47.49495 6.44259 32026 ft 501 kts 277°
2026-04-30 09:30 47.49850 6.39152 32497 ft 498 kts 277°
2026-04-30 09:30 47.50208 6.34073 32872 ft 497 kts 277°
2026-04-30 09:30 47.50570 6.28984 33194 ft 498 kts 278°
2026-04-30 09:30 47.50931 6.23896 33562 ft 496 kts 277°
2026-04-30 09:31 47.51290 6.18819 33961 ft 494 kts 277°
2026-04-30 09:31 47.51642 6.13779 34233 ft 494 kts 277°
2026-04-30 09:31 47.52342 6.03671 34183 ft 497 kts 277°
2026-04-30 09:32 47.53033 5.93552 34162 ft 491 kts 278°
2026-04-30 09:32 47.53668 5.88628 34166 ft 485 kts 290°
2026-04-30 09:32 47.54947 5.84045 34178 ft 481 kts 301°
2026-04-30 09:33 47.58949 5.76124 34200 ft 483 kts 316°
2026-04-30 09:33 47.63599 5.68845 34181 ft 488 kts 316°
2026-04-30 09:34 47.68206 5.61495 34176 ft 490 kts 315°
2026-04-30 09:34 47.72794 5.54048 34178 ft 488 kts 315°
2026-04-30 09:35 47.77359 5.46599 34177 ft 486 kts 314°
2026-04-30 09:35 47.81904 5.39169 34182 ft 485 kts 314°
2026-04-30 09:36 47.86411 5.31785 34180 ft 485 kts 314°
2026-04-30 09:36 47.90938 5.24350 34177 ft 485 kts 314°
2026-04-30 09:37 47.95475 5.16899 34182 ft 485 kts 314°
2026-04-30 09:37 48.00016 5.09432 34172 ft 486 kts 314°
2026-04-30 09:38 48.04527 5.01988 34174 ft 487 kts 314°
2026-04-30 09:38 48.09070 4.94469 34182 ft 487 kts 314°
2026-04-30 09:39 48.13611 4.86931 34170 ft 488 kts 314°
2026-04-30 09:39 48.18156 4.79362 34175 ft 489 kts 314°
2026-04-30 09:40 48.22668 4.71831 34183 ft 489 kts 314°
2026-04-30 09:40 48.26714 4.63667 34176 ft 492 kts 297°
2026-04-30 09:41 48.28757 4.53886 34177 ft 494 kts 278°
2026-04-30 09:41 48.29615 4.43653 34183 ft 495 kts 277°
2026-04-30 09:42 48.30470 4.33362 34188 ft 497 kts 278°
2026-04-30 09:42 48.31368 4.23137 34186 ft 498 kts 277°
2026-04-30 09:43 48.32291 4.12813 34186 ft 498 kts 277°
2026-04-30 09:43 48.33206 4.02497 34182 ft 498 kts 277°
2026-04-30 09:44 48.34110 3.92178 34185 ft 497 kts 277°
2026-04-30 09:44 48.34994 3.81949 34183 ft 497 kts 277°
2026-04-30 09:45 48.35875 3.71648 34178 ft 496 kts 277°
2026-04-30 09:45 48.36745 3.61370 34181 ft 496 kts 277°
2026-04-30 09:46 48.37606 3.51082 34178 ft 495 kts 277°
2026-04-30 09:46 48.38458 3.40800 34176 ft 495 kts 277°
2026-04-30 09:47 48.39294 3.30588 34162 ft 496 kts 277°
2026-04-30 09:47 48.40128 3.20289 34178 ft 496 kts 277°
2026-04-30 09:48 48.40954 3.09978 34174 ft 497 kts 277°
2026-04-30 09:48 48.41797 2.99640 34180 ft 498 kts 278°
2026-04-30 09:49 48.43460 2.89596 34175 ft 498 kts 287°
2026-04-30 09:49 48.45480 2.79624 34177 ft 498 kts 286°
2026-04-30 09:50 48.47401 2.69587 34173 ft 498 kts 285°
2026-04-30 09:50 48.49300 2.59558 34172 ft 498 kts 285°
2026-04-30 09:51 48.51188 2.49599 34174 ft 497 kts 285°
2026-04-30 09:51 48.53084 2.39564 34176 ft 497 kts 285°
2026-04-30 09:52 48.54970 2.29533 34179 ft 497 kts 285°
2026-04-30 09:52 48.56840 2.19501 34159 ft 496 kts 284°
2026-04-30 09:53 48.58341 2.09343 34161 ft 496 kts 281°
2026-04-30 09:53 48.59709 1.99205 34151 ft 496 kts 281°
2026-04-30 09:54 48.61103 1.89000 34150 ft 496 kts 281°
2026-04-30 09:54 48.62504 1.78807 34142 ft 496 kts 281°
2026-04-30 09:55 48.63666 1.70318 34150 ft 496 kts 281°
2026-04-30 09:55 48.65279 1.58448 34141 ft 496 kts 281°
2026-04-30 09:56 48.66669 1.48232 34145 ft 496 kts 281°
2026-04-30 09:56 48.67816 1.39747 34146 ft 496 kts 281°
2026-04-30 09:57 48.69188 1.29507 34150 ft 496 kts 280°
2026-04-30 09:57 48.70541 1.19272 34138 ft 495 kts 280°
2026-04-30 09:58 48.71879 1.09067 34135 ft 493 kts 280°
2026-04-30 09:58 48.73198 0.98960 34131 ft 492 kts 280°
2026-04-30 09:59 48.75819 0.78692 34141 ft 489 kts 280°
2026-04-30 10:00 48.77765 0.63519 34125 ft 489 kts 280°
2026-04-30 10:01 48.79866 0.48435 34123 ft 490 kts 284°
2026-04-30 10:02 48.82615 0.33484 34097 ft 491 kts 285°
2026-04-30 10:02 48.84432 0.23487 34112 ft 491 kts 285°
2026-04-30 10:03 48.86203 0.13584 34092 ft 489 kts 285°
2026-04-30 10:03 48.87970 0.03622 34111 ft 488 kts 285°
2026-04-30 10:04 48.89729 -0.06338 34092 ft 488 kts 284°
2026-04-30 10:04 48.91480 -0.16302 34101 ft 488 kts 284°
2026-04-30 10:05 48.93222 -0.26269 34113 ft 489 kts 284°
2026-04-30 10:05 48.94910 -0.36221 34109 ft 489 kts 284°
2026-04-30 10:06 48.96585 -0.46266 34107 ft 490 kts 284°
2026-04-30 10:06 48.98258 -0.56322 34089 ft 490 kts 284°
2026-04-30 10:07 48.99917 -0.66327 34107 ft 491 kts 284°
2026-04-30 10:07 49.01579 -0.76404 34100 ft 490 kts 284°
2026-04-30 10:08 49.03228 -0.86465 34099 ft 490 kts 283°
2026-04-30 10:08 49.04870 -0.96543 34089 ft 490 kts 283°
2026-04-30 10:09 49.06492 -1.06565 34085 ft 490 kts 283°
2026-04-30 10:09 49.08118 -1.16655 34102 ft 490 kts 283°
2026-04-30 10:10 49.09751 -1.26763 34081 ft 491 kts 283°
2026-04-30 10:10 49.11391 -1.36866 34086 ft 491 kts 283°
2026-04-30 10:11 49.13011 -1.46915 34090 ft 491 kts 283°
2026-04-30 10:11 49.14630 -1.57046 34087 ft 491 kts 283°
2026-04-30 10:12 49.16241 -1.67184 34098 ft 491 kts 283°
2026-04-30 10:12 49.17845 -1.77342 34099 ft 492 kts 282°
2026-04-30 10:13 49.19442 -1.87518 34065 ft 493 kts 282°
2026-04-30 10:13 49.21023 -1.97651 34058 ft 493 kts 281°
2026-04-30 10:14 49.22622 -2.07858 34098 ft 494 kts 282°
2026-04-30 10:14 49.25251 -2.23139 34108 ft 495 kts 283°
2026-04-30 10:15 49.27018 -2.33345 34082 ft 496 kts 282°
2026-04-30 10:15 49.28758 -2.43566 34080 ft 497 kts 282°
2026-04-30 10:16 49.30471 -2.53746 34078 ft 497 kts 282°
2026-04-30 10:17 49.33040 -2.69135 34092 ft 497 kts 282°
2026-04-30 10:17 49.35582 -2.84485 34089 ft 498 kts 282°
2026-04-30 10:18 49.37275 -2.94782 34090 ft 498 kts 281°
2026-04-30 10:19 49.39796 -3.10237 34091 ft 498 kts 281°
2026-04-30 10:19 49.41465 -3.20554 34093 ft 498 kts 281°
2026-04-30 10:20 49.43114 -3.30803 34082 ft 497 kts 281°
2026-04-30 10:20 49.45583 -3.46269 34080 ft 496 kts 281°
2026-04-30 10:21 49.47215 -3.56575 34077 ft 496 kts 281°
2026-04-30 10:21 49.48835 -3.66867 34082 ft 496 kts 281°
2026-04-30 10:22 49.50437 -3.77108 34069 ft 495 kts 280°
2026-04-30 10:22 49.52038 -3.87415 34072 ft 495 kts 280°
2026-04-30 10:23 49.53630 -3.97724 34070 ft 495 kts 280°
2026-04-30 10:23 49.55213 -4.08038 34082 ft 495 kts 280°
2026-04-30 10:24 49.56776 -4.18289 34075 ft 496 kts 280°
2026-04-30 10:24 49.58351 -4.28633 34063 ft 496 kts 281°
2026-04-30 10:25 49.60652 -4.38698 34065 ft 501 kts 293°
2026-04-30 10:25 49.63716 -4.48358 34072 ft 502 kts 294°
2026-04-30 10:26 49.66769 -4.57972 34064 ft 503 kts 293°
2026-04-30 10:26 49.69806 -4.67697 34068 ft 504 kts 293°
2026-04-30 10:27 49.72826 -4.77481 34070 ft 505 kts 293°
2026-04-30 10:27 49.75840 -4.87298 34069 ft 506 kts 292°
2026-04-30 10:28 49.78847 -4.97127 34070 ft 506 kts 292°
2026-04-30 10:28 49.81831 -5.06912 34070 ft 506 kts 292°
2026-04-30 10:29 49.84826 -5.16771 34051 ft 506 kts 292°
2026-04-30 10:29 49.87810 -5.26639 34036 ft 506 kts 292°
2026-04-30 10:30 49.90788 -5.36523 34042 ft 506 kts 292°
2026-04-30 10:30 49.93741 -5.46365 34075 ft 507 kts 292°
2026-04-30 10:31 49.96710 -5.56298 34051 ft 508 kts 292°
2026-04-30 10:31 49.99675 -5.66264 34020 ft 508 kts 292°
2026-04-30 10:32 50.02630 -5.76232 34020 ft 507 kts 292°
2026-04-30 10:32 50.05553 -5.86134 34023 ft 507 kts 291°
2026-04-30 10:33 50.08488 -5.96119 34054 ft 507 kts 291°
2026-04-30 10:33 50.11419 -6.06133 34039 ft 508 kts 291°
2026-04-30 10:34 50.14349 -6.16188 34026 ft 512 kts 291°
2026-04-30 10:34 50.17283 -6.26291 34032 ft 511 kts 291°
2026-04-30 10:35 50.20182 -6.36315 34038 ft 509 kts 291°
2026-04-30 10:35 50.23083 -6.46393 34065 ft 508 kts 290°
2026-04-30 10:36 50.25975 -6.56484 34039 ft 509 kts 290°
2026-04-30 10:36 50.28864 -6.66606 34038 ft 511 kts 290°
2026-04-30 10:37 50.31730 -6.76687 34030 ft 511 kts 290°
2026-04-30 10:37 50.34603 -6.86841 34031 ft 510 kts 290°
2026-04-30 10:38 50.37462 -6.96986 34060 ft 509 kts 290°
2026-04-30 10:38 50.40316 -7.07159 34043 ft 510 kts 289°
2026-04-30 10:39 50.43163 -7.17349 34036 ft 510 kts 289°
2026-04-30 10:39 50.45986 -7.27499 34045 ft 513 kts 289°
2026-04-30 10:40 50.48839 -7.37801 34018 ft 515 kts 289°
2026-04-30 10:40 50.51685 -7.48118 34035 ft 515 kts 289°
2026-04-30 10:41 50.54521 -7.58451 34034 ft 515 kts 289°
2026-04-30 10:41 50.57334 -7.68742 34022 ft 516 kts 289°
2026-04-30 10:42 50.60157 -7.79116 34029 ft 516 kts 289°
2026-04-30 10:42 50.62973 -7.89508 34012 ft 516 kts 289°
2026-04-30 10:43 50.65481 -8.00060 34026 ft 513 kts 281°
2026-04-30 10:43 50.66769 -8.11006 34031 ft 507 kts 271°
2026-04-30 10:44 50.67561 -8.21981 34017 ft 508 kts 271°
2026-04-30 10:44 50.68369 -8.33060 34018 ft 509 kts 271°
2026-04-30 10:45 50.69198 -8.44134 34055 ft 509 kts 271°
2026-04-30 10:45 50.70033 -8.55248 34021 ft 511 kts 271°
2026-04-30 10:46 50.70855 -8.66310 34001 ft 511 kts 271°
2026-04-30 10:46 50.71670 -8.77447 34011 ft 511 kts 271°
2026-04-30 10:47 50.72472 -8.88580 34006 ft 511 kts 271°
2026-04-30 10:47 50.73264 -8.99733 34007 ft 512 kts 271°
2026-04-30 10:48 50.74047 -9.10902 34010 ft 512 kts 271°
2026-04-30 10:48 50.74814 -9.22009 34003 ft 512 kts 270°
2026-04-30 10:49 50.75575 -9.33182 34002 ft 512 kts 270°
2026-04-30 10:49 50.76327 -9.44368 34036 ft 513 kts 270°
2026-04-30 10:50 50.77068 -9.55578 34007 ft 513 kts 270°
2026-04-30 10:50 50.77799 -9.66789 34002 ft 513 kts 270°
2026-04-30 10:51 50.78514 -9.77915 33999 ft 513 kts 270°
2026-04-30 10:51 50.79223 -9.89126 34000 ft 513 kts 270°
2026-04-30 10:52 50.79921 -10.00337 33996 ft 512 kts 270°
2026-04-30 10:52 50.80608 -10.11548 33994 ft 512 kts 270°
2026-04-30 10:53 50.81280 -10.22683 33994 ft 512 kts 270°
2026-04-30 10:53 50.81945 -10.33887 33977 ft 512 kts 270°
2026-04-30 10:54 50.82598 -10.45083 33993 ft 511 kts 270°
2026-04-30 10:54 50.83240 -10.56259 33995 ft 511 kts 270°
2026-04-30 10:55 50.83870 -10.67433 33988 ft 510 kts 270°
2026-04-30 10:55 50.84487 -10.78550 33968 ft 511 kts 270°
2026-04-30 10:56 50.85097 -10.89775 34021 ft 513 kts 270°
2026-04-30 10:56 50.85700 -11.01053 33992 ft 515 kts 270°
2026-04-30 10:57 50.86295 -11.12375 34070 ft 519 kts 270°
2026-04-30 10:57 50.86590 -11.18062 34314 ft 517 kts 270°
2026-04-30 10:57 50.86878 -11.23650 34632 ft 515 kts 270°
2026-04-30 10:58 50.87165 -11.29278 34967 ft 512 kts 270°
2026-04-30 10:58 50.87449 -11.34906 35002 ft 514 kts 270°
2026-04-30 10:58 50.88007 -11.46165 34978 ft 510 kts 271°
2026-04-30 10:59 50.88550 -11.57301 34978 ft 506 kts 271°
2026-04-30 10:59 50.89075 -11.68336 34985 ft 505 kts 270°
2026-04-30 11:00 50.89593 -11.79431 34981 ft 505 kts 270°
2026-04-30 11:00 50.90099 -11.90535 34988 ft 507 kts 271°
2026-04-30 11:01 50.90599 -12.01680 34983 ft 507 kts 271°
2026-04-30 11:01 50.91089 -12.12846 34984 ft 508 kts 271°
2026-04-30 11:02 50.91565 -12.23940 34980 ft 509 kts 271°
2026-04-30 11:02 50.92034 -12.35134 34978 ft 509 kts 271°
2026-04-30 11:03 50.92492 -12.46328 34973 ft 509 kts 271°
2026-04-30 11:04 50.93161 -12.63121 34984 ft 509 kts 271°
2026-04-30 11:04 50.93590 -12.74270 34990 ft 511 kts 271°
2026-04-30 11:05 50.94013 -12.85511 35001 ft 512 kts 272°
2026-04-30 11:05 50.94425 -12.96787 34993 ft 513 kts 272°
2026-04-30 11:06 50.94829 -13.08083 34990 ft 513 kts 272°
2026-04-30 11:06 50.95220 -13.19371 34995 ft 512 kts 271°
2026-04-30 11:07 50.95598 -13.30561 34993 ft 512 kts 271°
2026-04-30 11:07 50.95966 -13.41831 35004 ft 511 kts 272°
2026-04-30 11:08 50.96325 -13.53097 35003 ft 511 kts 272°
2026-04-30 11:08 50.96669 -13.64270 34998 ft 510 kts 272°
2026-04-30 11:09 50.97005 -13.75512 35009 ft 510 kts 272°
2026-04-30 11:09 50.97329 -13.86744 35021 ft 510 kts 272°
2026-04-30 11:10 50.97643 -13.97977 34997 ft 510 kts 272°
2026-04-30 11:10 50.97946 -14.09214 35011 ft 510 kts 272°
2026-04-30 11:11 50.98238 -14.20406 35018 ft 511 kts 272°
2026-04-30 11:11 50.98520 -14.31688 35024 ft 513 kts 272°
2026-04-30 11:12 50.98793 -14.43013 35017 ft 514 kts 272°
2026-04-30 11:12 50.99055 -14.54348 35019 ft 514 kts 272°
2026-04-30 11:13 50.99305 -14.65614 35022 ft 514 kts 272°
2026-04-30 11:13 50.99545 -14.76954 35026 ft 514 kts 272°
2026-04-30 11:14 50.99774 -14.88291 35030 ft 513 kts 272°
2026-04-30 11:14 50.99994 -14.99601 35035 ft 513 kts 272°
2026-04-30 11:15 51.00218 -15.10918 35032 ft 512 kts 272°
2026-04-30 11:15 51.00445 -15.22145 35035 ft 512 kts 272°
2026-04-30 11:16 51.00663 -15.33435 35052 ft 511 kts 272°
2026-04-30 11:16 51.00867 -15.44714 35038 ft 511 kts 272°
2026-04-30 11:17 51.01059 -15.55974 35030 ft 509 kts 272°
2026-04-30 11:17 51.01239 -15.67133 35043 ft 509 kts 272°
2026-04-30 11:18 51.01409 -15.78352 35041 ft 508 kts 272°
2026-04-30 11:18 51.01642 -15.95142 35049 ft 505 kts 272°
2026-04-30 11:19 51.01784 -16.06264 35054 ft 503 kts 272°
2026-04-30 11:19 51.01915 -16.17360 35057 ft 502 kts 272°
2026-04-30 11:20 51.02034 -16.28354 35058 ft 501 kts 273°
2026-04-30 11:20 51.02142 -16.39382 35063 ft 498 kts 273°
2026-04-30 11:21 51.02241 -16.50366 35072 ft 496 kts 273°
2026-04-30 11:21 51.02329 -16.61301 35075 ft 495 kts 273°
2026-04-30 11:22 51.02407 -16.72225 35081 ft 494 kts 273°
2026-04-30 11:22 51.02473 -16.83058 35087 ft 493 kts 274°
2026-04-30 11:23 51.02530 -16.93931 35075 ft 491 kts 274°
2026-04-30 11:24 51.02597 -17.10165 35068 ft 489 kts 273°
2026-04-30 11:24 51.02629 -17.20960 35092 ft 488 kts 273°
2026-04-30 11:25 51.02658 -17.37142 35107 ft 489 kts 273°
2026-04-30 11:26 51.02663 -17.58743 35119 ft 493 kts 273°
2026-04-30 11:26 51.02650 -17.69642 35122 ft 494 kts 272°
2026-04-30 11:27 51.02625 -17.80559 35120 ft 493 kts 273°
2026-04-30 11:27 51.02591 -17.91343 35115 ft 490 kts 273°
2026-04-30 11:28 51.02523 -18.07507 35126 ft 486 kts 273°
2026-04-30 11:29 51.02465 -18.18207 35130 ft 483 kts 273°
2026-04-30 11:29 51.02361 -18.34179 35137 ft 481 kts 274°
2026-04-30 11:30 51.02238 -18.50006 35149 ft 479 kts 274°
2026-04-30 11:31 51.02143 -18.60581 35151 ft 480 kts 273°
2026-04-30 11:31 51.02039 -18.71179 35144 ft 480 kts 273°
2026-04-30 11:32 51.01924 -18.81767 35148 ft 479 kts 272°
2026-04-30 11:32 51.01800 -18.92329 35150 ft 478 kts 272°
2026-04-30 11:33 51.01599 -19.08055 35167 ft 476 kts 272°
2026-04-30 11:33 51.01453 -19.18548 35168 ft 475 kts 272°
2026-04-30 11:34 51.01297 -19.29039 35164 ft 475 kts 272°
2026-04-30 11:34 51.01133 -19.39501 35180 ft 473 kts 272°
2026-04-30 11:35 51.00960 -19.49873 35181 ft 473 kts 272°
2026-04-30 11:35 51.00778 -19.60300 35176 ft 472 kts 272°
2026-04-30 11:36 51.00587 -19.70718 35179 ft 472 kts 272°
2026-04-30 11:36 51.00386 -19.81121 35178 ft 472 kts 272°
2026-04-30 11:37 51.00178 -19.91542 35191 ft 472 kts 272°
2026-04-30 11:37 50.99925 -20.01901 35182 ft 474 kts 269°
2026-04-30 11:38 50.99364 -20.12336 35201 ft 475 kts 268°
2026-04-30 11:38 50.98732 -20.22776 35175 ft 475 kts 268°
2026-04-30 11:39 50.98105 -20.33202 35199 ft 473 kts 267°
2026-04-30 11:39 50.97487 -20.43579 35196 ft 471 kts 267°
2026-04-30 11:40 50.96874 -20.53826 35196 ft 469 kts 267°
2026-04-30 11:40 50.96251 -20.64107 35203 ft 467 kts 267°
2026-04-30 11:41 50.95620 -20.74351 35206 ft 466 kts 267°
2026-04-30 11:41 50.94983 -20.84556 35207 ft 464 kts 267°
2026-04-30 11:42 50.94343 -20.94651 35208 ft 463 kts 267°
2026-04-30 11:42 50.93690 -21.04806 35212 ft 463 kts 266°
2026-04-30 11:43 50.93029 -21.14957 35216 ft 463 kts 266°
2026-04-30 11:43 50.92358 -21.25109 35225 ft 463 kts 266°
2026-04-30 11:44 50.91684 -21.35176 35218 ft 462 kts 266°
2026-04-30 11:44 50.90999 -21.45281 35222 ft 461 kts 266°
2026-04-30 11:45 50.90305 -21.55379 35222 ft 461 kts 266°
2026-04-30 11:45 50.89604 -21.65462 35225 ft 460 kts 266°
2026-04-30 11:46 50.88895 -21.75524 35227 ft 459 kts 266°
2026-04-30 11:46 50.88183 -21.85497 35227 ft 458 kts 266°
2026-04-30 11:47 50.87460 -21.95517 35234 ft 458 kts 265°
2026-04-30 11:47 50.86729 -22.05512 35233 ft 457 kts 265°
2026-04-30 11:48 50.85990 -22.15509 35229 ft 457 kts 265°
2026-04-30 11:48 50.85243 -22.25488 35238 ft 456 kts 265°
2026-04-30 11:49 50.84494 -22.35381 35246 ft 455 kts 265°
2026-04-30 11:49 50.83733 -22.45311 35235 ft 454 kts 265°
2026-04-30 11:50 50.82967 -22.55195 35243 ft 452 kts 265°